Weather History for KLNS - December, 2012

Change the Weather History Date:

Sunday, December 2, 2012

  Actual Average Record
Temperature  
Mean Temperature 44 °F -  
Max Temperature 50 °F 47 °F 66 °F (1998)
Min Temperature 39 °F 30 °F 20 °F (1989)
Degree Days  
Heating Degree Days 20    
Moisture  
Dew Point 41 °F    
Average Humidity 90    
Maximum Humidity 97    
Minimum Humidity 74    
Precipitation  
Precipitation 0.01 in - - ()
Sea Level Pressure  
Sea Level Pressure 30.26 in    
Wind  
Wind Speed 4 mph (SE)    
Max Wind Speed 8 mph    
Max Gust Speed -    
Visibility 2 miles    
Events Fog , Rain    
Averages and records for this station are not official NWS values.
T = Trace of Precipitation, MM = Missing Value Source: NWS Daily Summary

Daily Weather History Graph

Daily Weather History Graph

Search for Another Location

Airport or City:

Trip Planner

Search our weather history database for the weather conditions in past years. The results will help you decide how hot, cold, wet, or windy it might be!

Date:

Astronomy

Dec. 02, 2012 Rise Set
Actual Time 7:09 AM EST 4:39 PM EST
Civil Twilight 6:39 AM EST 5:09 PM EST
Nautical Twilight 6:05 AM EST 5:43 PM EST
Astronomical Twilight 5:32 AM EST 6:16 PM EST
Moon 8:25 PM EST (12/2) 9:58 AM EST (12/2)
Length of Visible Light 10h 30m
Length of Day
9h 30m
Waning Gibbous, 86% of the Moon is Illuminated
Dec 2
Waning Gibbous
Dec 6
Last Quarter
Dec 13
New
Dec 20
First Quarter
Dec 28
Full

Hourly Weather History & Observations

Time (EST) Temp. Windchill Dew Point Humidity Pressure Visibility Wind Dir Wind Speed Gust Speed Precip Events Conditions
12:33 AM 39.2 °F 35.0 °F 37.4 °F 93% 30.39 in 0.2 mi East 5.8 mph - N/A Fog Fog
12:53 AM 39.9 °F 37.8 °F 39.0 °F 97% 30.40 in 0.2 mi East 3.5 mph - N/A Fog Fog
1:53 AM 39.0 °F 35.7 °F 37.9 °F 96% 30.39 in 0.2 mi East 4.6 mph - N/A Fog Fog
2:53 AM 39.0 °F 36.8 °F 37.9 °F 96% 30.38 in 0.2 mi East 3.5 mph - N/A Fog Fog
3:44 AM 39.2 °F 35.9 °F 37.4 °F 93% 30.37 in 0.2 mi ENE 4.6 mph - N/A Fog Fog
3:53 AM 39.0 °F 34.8 °F 37.9 °F 96% 30.38 in 0.2 mi ENE 5.8 mph - N/A Fog Fog
4:53 AM 39.9 °F 35.8 °F 37.9 °F 93% 30.36 in 0.2 mi ENE 5.8 mph - N/A Fog Fog
5:53 AM 39.9 °F 37.8 °F 39.0 °F 97% 30.37 in 0.2 mi East 3.5 mph - N/A Fog Fog
6:53 AM 41.0 °F 37.1 °F 39.0 °F 93% 30.35 in 0.2 mi SE 5.8 mph - N/A Fog Fog
7:02 AM 41.0 °F 36.4 °F 39.2 °F 93% 30.34 in 0.8 mi SSE 6.9 mph - N/A Fog Fog
7:36 AM 41.0 °F 37.1 °F 39.2 °F 93% 30.33 in 0.2 mi SSE 5.8 mph - N/A Fog Fog
7:53 AM 41.0 °F 38.0 °F 39.9 °F 96% 30.35 in 0.5 mi SSE 4.6 mph - N/A Fog Fog
8:53 AM 42.1 °F 39.2 °F 39.9 °F 92% 30.33 in 0.5 mi SE 4.6 mph - N/A Fog Fog
9:21 AM 42.8 °F 40.1 °F 41.0 °F 93% 30.32 in 1.0 mi SE 4.6 mph - N/A   Overcast
9:53 AM 42.1 °F 39.2 °F 41.0 °F 96% 30.33 in 1.5 mi SE 4.6 mph - N/A   Overcast
10:21 AM 42.8 °F 40.1 °F 41.0 °F 93% 30.31 in 2.0 mi SE 4.6 mph - N/A   Overcast
10:53 AM 43.0 °F 41.3 °F 41.0 °F 93% 30.30 in 2.5 mi SSE 3.5 mph - N/A   Overcast
11:05 AM 44.6 °F 42.2 °F 42.8 °F 93% 30.28 in 2.5 mi SSE 4.6 mph - N/A   Overcast
11:53 AM 45.0 °F 41.8 °F 42.1 °F 90% 30.25 in 2.5 mi SSE 5.8 mph - N/A   Overcast
12:06 PM 46.4 °F 43.5 °F 42.8 °F 87% 30.24 in 3.0 mi SSE 5.8 mph - N/A   Mostly Cloudy
12:19 PM 46.4 °F 44.3 °F 42.8 °F 87% 30.23 in 3.0 mi SE 4.6 mph - N/A   Overcast
12:53 PM 48.9 °F - 42.1 °F 77% 30.22 in 4.0 mi Variable 5.8 mph - N/A   Haze
1:08 PM 48.2 °F - 42.8 °F 82% 30.20 in 4.0 mi SSE 5.8 mph - N/A   Haze
1:53 PM 50.0 °F - 42.1 °F 74% 30.18 in 5.0 mi South 6.9 mph - N/A   Haze
2:53 PM 50.0 °F - 43.0 °F 77% 30.14 in 4.0 mi SE 5.8 mph - N/A   Haze
3:53 PM 48.0 °F - 42.1 °F 80% 30.15 in 3.0 mi Calm Calm - N/A   Haze
4:53 PM 48.0 °F - 42.1 °F 80% 30.14 in 5.0 mi South 8.1 mph - N/A   Haze
5:53 PM 46.9 °F - 42.1 °F 83% 30.14 in 4.0 mi South 5.8 mph - 0.00 in Rain Light Rain
6:53 PM 46.9 °F - 43.0 °F 86% 30.14 in 4.0 mi Calm Calm - 0.01 in   Overcast
7:53 PM 46.9 °F - 43.0 °F 86% 30.15 in 4.0 mi Calm Calm - N/A   Overcast
8:53 PM 46.9 °F - 43.0 °F 86% 30.15 in 3.0 mi Calm Calm - 0.00 in   Overcast
9:09 PM 46.4 °F - 44.6 °F 93% 30.14 in 2.5 mi Calm Calm - N/A   Overcast
9:53 PM 46.9 °F - 44.1 °F 90% 30.15 in 2.5 mi Calm Calm - N/A   Overcast
10:33 PM 46.4 °F - 44.6 °F 93% 30.14 in 3.0 mi Calm Calm - N/A   Overcast
10:53 PM 46.9 °F - 44.1 °F 90% 30.15 in 3.0 mi Calm Calm - N/A   Overcast
11:39 PM 46.4 °F - 44.6 °F 93% 30.14 in 2.5 mi Calm Calm - N/A   Overcast
11:53 PM 46.0 °F - 43.0 °F 89% 30.14 in 2.5 mi Calm Calm - N/A   Overcast